Regional Weather Roundup
Issued by NWS

Home | Current Version | Previous Version | Graphics & Text | Print | Product List | Glossary On
Versions: 1 2 3 4 5 6 7 8 9 10 11 12 13 14 15 16 17 18 19 20 21 22 23 24 25 26 27 28 29 30 31 32 33 34 35 36 37 38 39 40 41 42 43 44 45 46 47 48 49 50
000
ASUS43 KDMX 201506
RWRIA

WEATHER ROUNDUP FOR IOWA
NATIONAL WEATHER SERVICE DES MOINES IA
900 AM CST TUE FEB 20 2018

NOTE: "FAIR" INDICATES FEW OR NO CLOUDS BELOW 12,000 FEET WITH NO
SIGNIFICANT WEATHER AND/OR OBSTRUCTIONS TO VISIBILITY.

* - THESE STATIONS ARE NOT NWS STATIONS...THUS NOT UNDER NWS
QUALITY CONTROL.  THEY ALSO DO NOT REPORT WEATHER SUCH
AS PRECIPITATION OR FOG.

IAZ001>003-012>014-020>022-031>034-043>046-201600-
   NORTHWEST IOWA

CITY           SKY/WX    TMP DP  RH WIND       PRES   REMARKS
CARROLL *      CLOUDY    19  16  86 NW18      29.97R WCI   4
CHEROKEE *     FLURRIES  13  10  87 NW8       30.00R WCI   2
DENISON *      FLURRIES  18  14  86 NW14G22   30.01R WCI   4
LE MARS *      FLURRIES  10   5  79 MISG      30.04R
ORANGE CITY *  CLOUDY    12  10  92 NW16      30.00R WCI  -4
SHELDON *      FLURRIES  10   7  85 MISG      29.98R
SIOUX CITY     CLOUDY     9   4  80 NW18      30.06R WCI -10
SPENCER        FLURRIES  15   9  76 NW14      29.96R WCI   0
STORM LAKE *   FLURRIES  14  10  85 NW18G24   29.97R WCI  -3
$$

IAZ055>058-069>071-079>083-090>094-201600-
   SOUTHWEST IOWA

CITY           SKY/WX    TMP DP  RH WIND       PRES   REMARKS
ATLANTIC *     CLOUDY    21  19  93 NW15      30.02R WCI   8
AUDUBON *      CLOUDY    19  16  86 NW8       29.97R WCI   9
CLARINDA *     MIX PCPN  23  23 100 NW15      30.04F WCI  10
COUNCIL BLFS * FLURRIES  16  18 100 NW15G22   30.05R WCI   1
CRESTON *      MIX PCPN  23  23 100 NW18      29.97R WCI   9
HARLAN  *      CLOUDY    18  18 100 NW20G28   30.04R WCI   1
LAMONI         FRZ RAIN  29  26  89 NW10      29.93R FOG     WCI  20
RED OAK *      CLOUDY    21  18  86 NW13      30.05R WCI   9
SHENANDOAH *   CLOUDY    21  19  93 NW14      30.06F WCI   8
$$

IAZ047>049-059>061-072>074-084-201600-
   CENTRAL IOWA

CITY           SKY/WX    TMP DP  RH WIND       PRES   REMARKS
AMES           CLOUDY    25  21  85 NW14      29.92R WCI  13
ANKENY *       CLOUDY    25  23  93 MISG      29.94F
BOONE *        CLOUDY    23  21  93 MISG      29.92R
CHARITON *     LGT RAIN  28  28 100 W14       29.96R WCI  17
DES MOINES     CLOUDY    26  23  88 NW16      29.92F WCI  14
GRINNELL*      MIX PCPN  31  31  99 NW12      29.89R WCI  22
KNOXVILLE *    CLOUDY    28  27  93 NW12      29.90R WCI  18
MARSHALLTOWN   CLOUDY    28  26  92 NW16      29.89R WCI  16
NEWTON *       CLOUDY    28  28 100 W13       29.90S WCI  18
PELLA *        CLOUDY    30  29  94 NW7       29.91R WCI  23
PERRY *        CLOUDY    24  22  93 NW8       29.96R WCI  15
$$

IAZ004>006-015-016-023>025-035-036-201600-
   NORTH CENTRAL IOWA

CITY           SKY/WX    TMP DP  RH WIND       PRES   REMARKS
ALGONA *       CLOUDY    18 N/A N/A NW16G22   29.92R WCI   3
CLARION *      CLOUDY    21  21 100 NW16      29.92R WCI   7
ESTHERVILLE    CLOUDY    13   9  84 NW18      29.93F WCI  -4
FORT DODGE *   CLOUDY    19  16  88 NW12G18   29.95R WCI   7
MASON CITY     CLOUDY    21  19  92 NW14      29.88S WCI   8
FOREST CITY *  CLOUDY    21  19  93 NW10      29.88S WCI  10
WEBSTER CITY * CLOUDY    21  19  93 NW14      29.92R WCI   8
IOWA FALLS *   CLOUDY    25  23  92 W7        29.91R WCI  17
$$

IAZ007>011-017>019-026>030-037>042-050>054-066-201600-
   NORTHEAST IOWA

CITY           SKY/WX    TMP DP  RH WIND       PRES   REMARKS
CEDAR RAPIDS   TSTM      33  32  96 W14       29.90R VSB 3/4 WCI  23
CHARLES CITY * CLOUDY    27  27 100 NW10G18   29.86R WCI  17
CLINTON *        N/A     35  35 100 MISG        N/A  FOG
DECORAH *      CLOUDY    32  32 100 VRB7G14   29.80R WCI  26
DUBUQUE        CLOUDY    34  32  92 W5        29.82S WCI  30
MONTICELLO *   LGT RAIN  34  34 100 W8        29.84R WCI  27
OELWEIN *      PTSUNNY   32  32 100 W14       29.86R WCI  22
WATERLOO       CLOUDY    30  29  96 W12       29.88R WCI  20
$$

IAZ064-065-067-068-078-201600-
   EAST CENTRAL IOWA

CITY           SKY/WX    TMP DP  RH WIND       PRES   REMARKS
DAVENPORT      CLOUDY    37  34  89 NW5       29.85F WCI  33
IOWA CITY      CLOUDY    36 N/A N/A W10       29.90R HAZE    WCI  28
MT. PLEASANT * CLOUDY    32  32 100 NW7       29.86R WCI  26
MUSCATINE *    CLOUDY    36  34  93 W6        29.87R WCI  31
QUAD CITIES    CLOUDY    38  36  92 CALM      29.81F
$$

IAZ062-063-075>077-085>089-095>099-201600-
   SOUTHEAST IOWA

CITY           SKY/WX    TMP DP  RH WIND       PRES   REMARKS
BURLINGTON     CLOUDY    37  36  96 N3        29.84F
FAIRFIELD *    FOG       32  32 100 NW10G18   29.89R VSB 3/4 WCI  24
FORT MADISON * CLOUDY    36  36 100 NW3       29.86S FOG
KEOKUK *       CLOUDY    37  36  93 N6        29.84S FOG     WCI  33
OSKALOOSA *    RAIN      31  31  98 NW7       29.88F WCI  24
OTTUMWA        FRZ RAIN  32  30  92 NW10      29.87R FOG     WCI  24
WASHINGTON *   LGT RAIN  34  34 100 W16G24    29.93R VSB 3/4 WCI  23
$$

ABBREVIATIONS USED IN REMARKS
   TC - TEMPERATURES IN CELSIUS
  WCI - WIND CHILL INDEX
   HX - HEAT INDEX
  VSB - VISIBILITY
$$





USA.gov is the U.S. government's official web portal to all federal, state and local government web resources and services.